SCP
0 0 0 0 0 0 0 0 0 0 0 0 0 0 0 0 0 0 0 0 0 0
0 0 0 0 0 0 0 0 0 0 0 0 0 0 0 0 0 0 0 0 0 0
0 0 0 0 0 0 0 0 0 0 0 0 0 0 0 0 0 0 0 0 0 0
0 0 0 0 0 0 0 0 0 0 0 0 0 0 0 0 0 0 0 0 0 0
0 0 0 0 0 0 0 0 0 0 0 0 0 0 0 0 0 0 0 0 0 0
0 0 0 0 0 0 0 0 0 0 0 0 0 0 0 0 0 0 0 0 0 0
0 0 0 0 0 0 0 0 0 0 0 0 0 0 0 0 0 0 0 0 0 0
0 0 0 0 0 0 0 0 0 0 0 0 0 0 0 0 0 0 0 0 0 0
0 0 0 0 0 0 0 0 0 0 0 0 0 0 0 0 0 0 0 0 0 0
0 0 0 0 0 0 0 0 0 0 0 0 0 0 0 0 0 0 0 0 0 0
0 0 0 0 0 0 0 0 0 0 0 0 0 0 0 0 0 0 0 0 0 0
0 0 0 0 0 0 0 0 0 0 0 0 0 0 0 0 0 0 0 0 0 0
0 0 0 0 0 0 0 0 0 0 0 0 0 0 0 0 0 0 0 0 0 0
0 0 0 0 0 0 0 0 0 0 0 0 0 0 0 0 0 0 0 0 0 0
Wind_Speed_500mb
116 116 108 100 96 95 91 85 75 68 61 52 44 40 36 33 33 32 30 27 24 22
114 116 112 100 93 90 89 85 75 69 64 57 51 45 40 38 36 35 34 30 27 25
108 110 107 98 94 92 85 81 76 71 67 63 58 52 47 43 41 40 37 34 31 28
95 101 102 95 93 89 82 79 79 75 71 69 64 58 54 48 45 44 41 37 34 31
78 87 94 94 92 88 82 79 77 76 75 72 68 62 59 53 50 47 45 40 38 34
65 75 83 86 88 87 82 80 79 79 79 76 70 67 62 57 54 50 47 44 41 37
49 60 68 74 82 84 82 79 79 80 79 76 72 68 65 61 58 53 52 48 44 42
36 44 54 63 70 75 77 76 78 79 78 77 76 75 70 66 61 58 56 52 49 45
25 33 40 48 57 64 69 75 77 78 80 80 80 77 71 67 64 61 59 55 51 47
17 28 35 40 47 55 61 66 73 77 79 82 81 77 72 69 66 64 60 56 53 50
7 15 27 39 48 54 59 65 70 73 77 79 79 78 73 70 68 66 62 59 56 52
17 13 18 28 39 48 59 64 68 71 74 77 80 77 75 74 73 71 67 63 60 55
26 24 21 20 27 37 46 54 65 72 75 77 78 76 76 77 77 75 72 67 65 58
30 29 27 26 27 29 35 44 52 62 72 76 75 76 76 80 82 78 74 72 68 60
Wind_Direction_500mb
221 222 225 224 218 217 217 217 216 217 218 219 221 227 233 240 245 247 246 249 257 269
221 222 223 224 221 221 221 220 220 221 221 221 225 231 236 242 247 248 246 247 254 265
222 222 224 225 221 221 222 221 222 223 223 224 228 233 237 242 245 249 247 246 252 261
223 223 224 225 223 222 222 220 221 223 224 227 230 234 238 242 246 248 247 246 250 257
225 224 224 224 222 221 222 223 223 223 225 227 231 235 240 243 248 249 248 247 249 254
226 226 225 224 222 221 223 224 224 225 228 230 233 237 241 244 246 247 247 246 248 253
227 228 227 227 224 223 225 226 227 228 231 233 236 239 241 242 244 246 246 245 246 250
224 227 229 230 229 228 228 230 231 232 234 235 237 238 239 240 242 244 244 243 245 249
217 221 225 227 228 229 230 230 231 232 234 236 238 239 239 240 241 243 242 242 243 246
217 217 215 220 222 226 229 231 233 234 236 238 239 240 239 239 240 241 242 241 241 244
285 240 230 225 222 223 228 231 235 237 239 240 241 240 238 239 240 240 239 238 239 242
350 314 266 244 240 238 234 233 234 237 240 241 241 240 237 236 237 238 237 236 237 239
7 351 326 290 260 249 247 245 241 240 239 241 242 241 238 237 236 236 236 233 234 235
4 353 348 326 296 271 260 254 251 247 243 244 241 240 238 237 236 237 235 234 234 234
Wind_Speed_850mb
116 116 108 100 96 95 91 85 75 68 61 52 44 40 36 33 33 32 30 27 24 22
114 116 112 100 93 90 89 85 75 69 64 57 51 45 40 38 36 35 34 30 27 25
108 110 107 98 94 92 85 81 76 71 67 63 58 52 47 43 41 40 37 34 31 28
95 101 102 95 93 89 82 79 79 75 71 69 64 58 54 48 45 44 41 37 34 31
78 87 94 94 92 88 82 79 77 76 75 72 68 62 59 53 50 47 45 40 38 34
65 75 83 86 88 87 82 80 79 79 79 76 70 67 62 57 54 50 47 44 41 37
49 60 68 74 82 84 82 79 79 80 79 76 72 68 65 61 58 53 52 48 44 42
36 44 54 63 70 75 77 76 78 79 78 77 76 75 70 66 61 58 56 52 49 45
25 33 40 48 57 64 69 75 77 78 80 80 80 77 71 67 64 61 59 55 51 47
17 28 35 40 47 55 61 66 73 77 79 82 81 77 72 69 66 64 60 56 53 50
7 15 27 39 48 54 59 65 70 73 77 79 79 78 73 70 68 66 62 59 56 52
17 13 18 28 39 48 59 64 68 71 74 77 80 77 75 74 73 71 67 63 60 55
26 24 21 20 27 37 46 54 65 72 75 77 78 76 76 77 77 75 72 67 65 58
30 29 27 26 27 29 35 44 52 62 72 76 75 76 76 80 82 78 74 72 68 60
Wind_Direction_850mb
221 222 225 224 218 217 217 217 216 217 218 219 221 227 233 240 245 247 246 249 257 269
221 222 223 224 221 221 221 220 220 221 221 221 225 231 236 242 247 248 246 247 254 265
222 222 224 225 221 221 222 221 222 223 223 224 228 233 237 242 245 249 247 246 252 261
223 223 224 225 223 222 222 220 221 223 224 227 230 234 238 242 246 248 247 246 250 257
225 224 224 224 222 221 222 223 223 223 225 227 231 235 240 243 248 249 248 247 249 254
226 226 225 224 222 221 223 224 224 225 228 230 233 237 241 244 246 247 247 246 248 253
227 228 227 227 224 223 225 226 227 228 231 233 236 239 241 242 244 246 246 245 246 250
224 227 229 230 229 228 228 230 231 232 234 235 237 238 239 240 242 244 244 243 245 249
217 221 225 227 228 229 230 230 231 232 234 236 238 239 239 240 241 243 242 242 243 246
217 217 215 220 222 226 229 231 233 234 236 238 239 240 239 239 240 241 242 241 241 244
285 240 230 225 222 223 228 231 235 237 239 240 241 240 238 239 240 240 239 238 239 242
350 314 266 244 240 238 234 233 234 237 240 241 241 240 237 236 237 238 237 236 237 239
7 351 326 290 260 249 247 245 241 240 239 241 242 241 238 237 236 236 236 233 234 235
4 353 348 326 296 271 260 254 251 247 243 244 241 240 238 237 236 237 235 234 234 234